JBU2254 KTPA-KRDU

Flight info

Callsign JBU2254
Flight time 1h 19m
Altitude 37000
Route BAYPO2 CAMJO Q99 TEEEM PETTO DMSTR2
Aircraft A320/M-SDE3FGHIRWY/LB1

Departure

Time 2026-05-08 04:38
Airport Tampa International Airport (KTPA)

Arrival

Time 2026-05-08 05:57
Airport Raleigh-Durham International Airport (KRDU)
Time Latitude Longitude Altitude Speed Heading
2026-05-08 04:27 27.97611 -82.53163 43 ft 0 kts 269°
2026-05-08 04:30 27.97611 -82.53156 43 ft 4 kts 269°
2026-05-08 04:30 27.97612 -82.53126 43 ft 4 kts 269°
2026-05-08 04:30 27.97612 -82.53097 43 ft 2 kts 268°
2026-05-08 04:31 27.97615 -82.53075 43 ft 4 kts 227°
2026-05-08 04:31 27.97634 -82.53066 38 ft 4 kts 182°
2026-05-08 04:31 27.97646 -82.53065 43 ft 0 kts 182°
2026-05-08 04:33 27.97645 -82.53065 43 ft 1 kts 182°
2026-05-08 04:33 27.97627 -82.53066 41 ft 4 kts 182°
2026-05-08 04:33 27.97578 -82.53068 43 ft 10 kts 182°
2026-05-08 04:34 27.97539 -82.53014 42 ft 12 kts 78°
2026-05-08 04:34 27.97619 -82.52984 42 ft 14 kts
2026-05-08 04:34 27.97726 -82.52980 42 ft 17 kts
2026-05-08 04:34 27.97834 -82.52976 42 ft 15 kts
2026-05-08 04:35 27.97945 -82.52973 42 ft 17 kts
2026-05-08 04:35 27.98077 -82.52968 40 ft 20 kts
2026-05-08 04:35 27.98215 -82.52963 41 ft 14 kts
2026-05-08 04:35 27.98323 -82.52962 41 ft 17 kts
2026-05-08 04:36 27.98452 -82.52954 41 ft 20 kts
2026-05-08 04:36 27.98549 -82.52951 41 ft 13 kts
2026-05-08 04:36 27.98650 -82.52948 41 ft 10 kts
2026-05-08 04:36 27.98711 -82.52911 39 ft 13 kts 76°
2026-05-08 04:37 27.98688 -82.52821 37 ft 8 kts 169°
2026-05-08 04:37 27.98654 -82.52824 37 ft 0 kts 181°
2026-05-08 04:37 27.98622 -82.52825 37 ft 17 kts 181°
2026-05-08 04:38 27.98231 -82.52840 37 ft 93 kts 182°
2026-05-08 04:38 27.97383 -82.52871 40 ft 149 kts 183°
2026-05-08 04:38 27.96269 -82.52918 429 ft 161 kts 181°
2026-05-08 04:38 27.95176 -82.53087 1083 ft 159 kts 210°
2026-05-08 04:39 27.94180 -82.53758 1436 ft 179 kts 214°
2026-05-08 04:39 27.93046 -82.54532 1742 ft 202 kts 220°
2026-05-08 04:39 27.92220 -82.55872 2068 ft 221 kts 255°
2026-05-08 04:39 27.91881 -82.57652 2528 ft 243 kts 263°
2026-05-08 04:40 27.91640 -82.59604 3244 ft 256 kts 263°
2026-05-08 04:40 27.91425 -82.61623 4132 ft 262 kts 263°
2026-05-08 04:40 27.91269 -82.63697 5001 ft 268 kts 272°
2026-05-08 04:40 27.91720 -82.65747 5827 ft 274 kts 297°
2026-05-08 04:41 27.92939 -82.67405 6679 ft 279 kts 323°
2026-05-08 04:41 27.94723 -82.68273 7488 ft 285 kts 350°
2026-05-08 04:41 27.96714 -82.68152 8301 ft 291 kts 11°
2026-05-08 04:41 27.98696 -82.67644 9118 ft 294 kts 11°
2026-05-08 04:42 28.00705 -82.67125 9917 ft 298 kts 11°
2026-05-08 04:42 28.02778 -82.66596 10323 ft 316 kts 10°
2026-05-08 04:42 28.04993 -82.66036 10628 ft 334 kts 10°
2026-05-08 04:42 28.07285 -82.65456 11195 ft 341 kts 10°
2026-05-08 04:43 28.09616 -82.64867 11823 ft 346 kts 10°
2026-05-08 04:43 28.11980 -82.64269 12470 ft 350 kts 10°
2026-05-08 04:43 28.14377 -82.63664 13093 ft 355 kts
2026-05-08 04:43 28.16807 -82.63049 13727 ft 360 kts
2026-05-08 04:44 28.19263 -82.62426 14315 ft 364 kts
2026-05-08 04:44 28.21740 -82.61793 14928 ft 366 kts
2026-05-08 04:44 28.24237 -82.61152 15542 ft 369 kts
2026-05-08 04:44 28.26747 -82.60509 16158 ft 372 kts
2026-05-08 04:45 28.29277 -82.59865 16771 ft 374 kts
2026-05-08 04:45 28.31827 -82.59218 17383 ft 377 kts
2026-05-08 04:45 28.34401 -82.58563 18001 ft 380 kts
2026-05-08 04:45 28.37004 -82.58132 18574 ft 376 kts 357°
2026-05-08 04:46 28.39613 -82.58151 19100 ft 376 kts 353°
2026-05-08 04:46 28.42245 -82.58219 19634 ft 379 kts 353°
2026-05-08 04:46 28.44894 -82.58289 20178 ft 382 kts 352°
2026-05-08 04:46 28.47566 -82.58360 20741 ft 386 kts 352°
2026-05-08 04:47 28.50262 -82.58433 21269 ft 389 kts 352°
2026-05-08 04:47 28.52983 -82.58504 21796 ft 393 kts 352°
2026-05-08 04:47 28.55726 -82.58573 22317 ft 396 kts 352°
2026-05-08 04:47 28.58496 -82.58641 22857 ft 400 kts 352°
2026-05-08 04:48 28.61284 -82.58708 23383 ft 403 kts 352°
2026-05-08 04:48 28.64106 -82.58778 23858 ft 406 kts 352°
2026-05-08 04:48 28.66939 -82.58869 24297 ft 407 kts 349°
2026-05-08 04:48 28.69756 -82.59227 24738 ft 407 kts 346°
2026-05-08 04:49 28.72571 -82.59620 25182 ft 409 kts 346°
2026-05-08 04:49 28.75402 -82.60017 25613 ft 411 kts 346°
2026-05-08 04:49 28.78248 -82.60415 26055 ft 414 kts 345°
2026-05-08 04:49 28.81120 -82.60818 26471 ft 416 kts 345°
2026-05-08 04:50 28.84003 -82.61222 26896 ft 419 kts 345°
2026-05-08 04:50 28.86873 -82.61624 27306 ft 421 kts 345°
2026-05-08 04:50 28.89787 -82.62030 27709 ft 423 kts 345°
2026-05-08 04:50 28.92712 -82.62437 28107 ft 425 kts 345°
2026-05-08 04:51 28.95655 -82.62847 28510 ft 427 kts 345°
2026-05-08 04:51 28.98608 -82.63259 28911 ft 429 kts 345°
2026-05-08 04:51 29.01576 -82.63677 29317 ft 431 kts 345°
2026-05-08 04:51 29.04562 -82.64097 29713 ft 433 kts 345°
2026-05-08 04:52 29.07561 -82.64517 30125 ft 435 kts 345°
2026-05-08 04:52 29.10581 -82.64942 30461 ft 438 kts 345°
2026-05-08 04:52 29.13610 -82.65368 30795 ft 440 kts 345°
2026-05-08 04:52 29.16661 -82.65794 31102 ft 442 kts 345°
2026-05-08 04:53 29.19722 -82.66220 31416 ft 445 kts 345°
2026-05-08 04:53 29.22801 -82.66651 31731 ft 447 kts 345°
2026-05-08 04:53 29.25884 -82.67082 32168 ft 446 kts 345°
2026-05-08 04:53 29.28958 -82.67510 32616 ft 445 kts 345°
2026-05-08 04:54 29.32035 -82.67941 33081 ft 444 kts 344°
2026-05-08 04:54 29.35095 -82.68372 33562 ft 443 kts 344°
2026-05-08 04:54 29.38144 -82.68803 34008 ft 442 kts 343°
2026-05-08 04:54 29.41201 -82.69223 34408 ft 443 kts 346°
2026-05-08 04:55 29.44313 -82.69316 34806 ft 449 kts 351°
2026-05-08 04:55 29.47435 -82.69300 35208 ft 447 kts 351°
2026-05-08 04:55 29.50540 -82.69275 35610 ft 446 kts 351°
2026-05-08 04:55 29.53636 -82.69245 36011 ft 444 kts 351°
2026-05-08 04:56 29.56718 -82.69216 36406 ft 442 kts 351°
2026-05-08 04:56 29.59784 -82.69193 36792 ft 440 kts 351°
2026-05-08 04:56 29.62840 -82.69176 37030 ft 439 kts 350°
2026-05-08 04:56 29.65892 -82.69161 37044 ft 440 kts 350°
2026-05-08 04:57 29.72108 -82.69144 37042 ft 453 kts 350°
2026-05-08 04:57 29.78437 -82.69114 37037 ft 460 kts 351°
2026-05-08 04:58 29.84851 -82.69060 37036 ft 461 kts 351°
2026-05-08 04:58 29.91275 -82.69014 37055 ft 461 kts 351°
2026-05-08 04:59 29.97701 -82.68970 37032 ft 461 kts 351°
2026-05-08 04:59 30.04120 -82.68933 37040 ft 462 kts 350°
2026-05-08 05:00 30.10551 -82.68895 37045 ft 462 kts 351°
2026-05-08 05:00 30.16977 -82.68854 37050 ft 462 kts 351°
2026-05-08 05:01 30.23407 -82.68812 37043 ft 460 kts 350°
2026-05-08 05:01 30.29813 -82.68763 37022 ft 460 kts 350°
2026-05-08 05:02 30.36224 -82.68728 37022 ft 461 kts 350°
2026-05-08 05:02 30.42646 -82.68692 37020 ft 462 kts 350°
2026-05-08 05:03 30.49038 -82.68649 37026 ft 462 kts 350°
2026-05-08 05:03 30.52276 -82.68355 37030 ft 475 kts 359°
2026-05-08 05:03 30.55539 -82.67670 37021 ft 477 kts
2026-05-08 05:04 30.62061 -82.66272 37020 ft 477 kts
2026-05-08 05:04 30.68606 -82.64862 37022 ft 477 kts
2026-05-08 05:05 30.75136 -82.63467 37041 ft 477 kts
2026-05-08 05:05 30.81658 -82.62075 37024 ft 476 kts 360°
2026-05-08 05:06 30.88176 -82.60685 37027 ft 476 kts 360°
2026-05-08 05:06 30.94695 -82.59293 37046 ft 476 kts 360°
2026-05-08 05:07 31.01209 -82.57893 37052 ft 476 kts 360°
2026-05-08 05:07 31.07716 -82.56390 37027 ft 483 kts
2026-05-08 05:08 31.10897 -82.54959 37023 ft 499 kts 17°
2026-05-08 05:08 31.13993 -82.53094 37025 ft 501 kts 17°
2026-05-08 05:08 31.20182 -82.49333 37041 ft 502 kts 17°
2026-05-08 05:09 31.26387 -82.45556 37043 ft 503 kts 17°
2026-05-08 05:09 31.32594 -82.41774 37045 ft 503 kts 17°
2026-05-08 05:10 31.40855 -82.36739 37034 ft 503 kts 17°
2026-05-08 05:11 31.47072 -82.32944 37030 ft 504 kts 17°
2026-05-08 05:11 31.53292 -82.29135 37021 ft 504 kts 17°
2026-05-08 05:12 31.59514 -82.25322 37011 ft 504 kts 17°
2026-05-08 05:12 31.65733 -82.21507 36997 ft 505 kts 17°
2026-05-08 05:13 31.71960 -82.17692 37000 ft 505 kts 17°
2026-05-08 05:13 31.78199 -82.13859 37001 ft 506 kts 17°
2026-05-08 05:14 31.84440 -82.10003 37044 ft 506 kts 17°
2026-05-08 05:14 31.90664 -82.06160 37001 ft 505 kts 17°
2026-05-08 05:15 31.96885 -82.02308 37003 ft 506 kts 17°
2026-05-08 05:15 32.03117 -81.98455 37007 ft 506 kts 17°
2026-05-08 05:16 32.09357 -81.94591 37064 ft 507 kts 17°
2026-05-08 05:16 32.15545 -81.90500 37047 ft 520 kts 25°
2026-05-08 05:17 32.21412 -81.85453 37041 ft 522 kts 26°
2026-05-08 05:17 32.27272 -81.80382 37038 ft 522 kts 26°
2026-05-08 05:18 32.33134 -81.75309 37026 ft 522 kts 26°
2026-05-08 05:18 32.39002 -81.70223 36994 ft 521 kts 25°
2026-05-08 05:19 32.44856 -81.65142 36984 ft 522 kts 25°
2026-05-08 05:19 32.50721 -81.60048 36995 ft 523 kts 25°
2026-05-08 05:20 32.56562 -81.54976 36998 ft 524 kts 25°
2026-05-08 05:20 32.62443 -81.49862 36994 ft 524 kts 25°
2026-05-08 05:21 32.68300 -81.44742 36974 ft 523 kts 25°
2026-05-08 05:21 32.74177 -81.39598 36987 ft 524 kts 25°
2026-05-08 05:22 32.80058 -81.34442 36999 ft 525 kts 25°
2026-05-08 05:22 32.85947 -81.29280 37052 ft 526 kts 25°
2026-05-08 05:23 32.91832 -81.24097 37039 ft 526 kts 25°
2026-05-08 05:23 32.97709 -81.18917 37033 ft 525 kts 25°
2026-05-08 05:24 33.03588 -81.13737 37030 ft 525 kts 25°
2026-05-08 05:24 33.09537 -81.08766 37012 ft 518 kts 21°
2026-05-08 05:25 33.15614 -81.04294 37012 ft 514 kts 19°
2026-05-08 05:25 33.21752 -80.99894 37017 ft 515 kts 19°
2026-05-08 05:26 33.27849 -80.95354 37027 ft 517 kts 20°
2026-05-08 05:26 33.33925 -80.90718 37022 ft 518 kts 21°
2026-05-08 05:27 33.39980 -80.86088 37021 ft 515 kts 20°
2026-05-08 05:27 33.46037 -80.81492 37023 ft 515 kts 20°
2026-05-08 05:28 33.52102 -80.76911 37027 ft 515 kts 20°
2026-05-08 05:28 33.58167 -80.72309 37021 ft 516 kts 20°
2026-05-08 05:29 33.64236 -80.67674 36986 ft 515 kts 20°
2026-05-08 05:29 33.70280 -80.63054 36977 ft 516 kts 20°
2026-05-08 05:30 33.76343 -80.58429 36987 ft 516 kts 20°
2026-05-08 05:30 33.82410 -80.53789 37004 ft 517 kts 20°
2026-05-08 05:31 33.88485 -80.49129 37048 ft 518 kts 20°
2026-05-08 05:31 33.94518 -80.44477 36865 ft 509 kts 20°
2026-05-08 05:31 33.97490 -80.42182 36609 ft 507 kts 20°
2026-05-08 05:32 34.00432 -80.39918 36389 ft 507 kts 20°
2026-05-08 05:32 34.03443 -80.37612 36138 ft 507 kts 20°
2026-05-08 05:32 34.06387 -80.35350 35894 ft 508 kts 20°
2026-05-08 05:32 34.09387 -80.33048 35654 ft 514 kts 20°
2026-05-08 05:33 34.12397 -80.30732 35456 ft 512 kts 20°
2026-05-08 05:33 34.15396 -80.28417 35153 ft 512 kts 21°
2026-05-08 05:33 34.18410 -80.26088 34140 ft 519 kts 21°
2026-05-08 05:33 34.21464 -80.23725 33011 ft 525 kts 21°
2026-05-08 05:34 34.24549 -80.21327 31902 ft 528 kts 22°
2026-05-08 05:34 34.27650 -80.18912 30777 ft 532 kts 22°
2026-05-08 05:34 34.30741 -80.16499 30097 ft 525 kts 22°
2026-05-08 05:34 34.33793 -80.14108 29361 ft 520 kts 22°
2026-05-08 05:35 34.36819 -80.11741 28560 ft 516 kts 22°
2026-05-08 05:35 34.39823 -80.09397 27830 ft 511 kts 22°
2026-05-08 05:35 34.42805 -80.07078 27092 ft 507 kts 22°
2026-05-08 05:35 34.45759 -80.04782 26361 ft 503 kts 22°
2026-05-08 05:36 34.48691 -80.02500 25643 ft 499 kts 22°
2026-05-08 05:36 34.51602 -80.00228 24922 ft 496 kts 22°
2026-05-08 05:36 34.54497 -79.97967 24226 ft 493 kts 22°
2026-05-08 05:36 34.57377 -79.95718 23531 ft 490 kts 22°
2026-05-08 05:37 34.60217 -79.93493 23159 ft 479 kts 23°
2026-05-08 05:37 34.62953 -79.91332 22944 ft 460 kts 23°
2026-05-08 05:37 34.65608 -79.89229 22364 ft 451 kts 22°
2026-05-08 05:37 34.68214 -79.87171 21680 ft 441 kts 23°
2026-05-08 05:38 34.70756 -79.85094 20993 ft 441 kts 25°
2026-05-08 05:38 34.73232 -79.82961 20456 ft 433 kts 26°
2026-05-08 05:38 34.75646 -79.80806 19871 ft 426 kts 27°
2026-05-08 05:38 34.78003 -79.78669 19336 ft 419 kts 27°
2026-05-08 05:39 34.80322 -79.76571 19130 ft 414 kts 27°
2026-05-08 05:39 34.82635 -79.74499 18793 ft 411 kts 26°
2026-05-08 05:39 34.84930 -79.72462 18409 ft 407 kts 26°
2026-05-08 05:39 34.87210 -79.70448 18013 ft 403 kts 26°
2026-05-08 05:40 34.89475 -79.68454 17626 ft 400 kts 26°
2026-05-08 05:40 34.91723 -79.66473 17264 ft 397 kts 27°
2026-05-08 05:40 34.93955 -79.64502 16911 ft 394 kts 27°
2026-05-08 05:40 34.96164 -79.62546 16566 ft 392 kts 27°
2026-05-08 05:41 34.98360 -79.60596 16216 ft 389 kts 27°
2026-05-08 05:41 35.00542 -79.58659 15871 ft 386 kts 28°
2026-05-08 05:41 35.02704 -79.56738 15530 ft 383 kts 28°
2026-05-08 05:41 35.04849 -79.54827 15186 ft 381 kts 28°
2026-05-08 05:42 35.06979 -79.52925 14849 ft 378 kts 28°
2026-05-08 05:42 35.09104 -79.51051 14510 ft 373 kts 25°
2026-05-08 05:42 35.11355 -79.49604 14183 ft 360 kts 13°
2026-05-08 05:42 35.13718 -79.48756 13868 ft 348 kts
2026-05-08 05:43 35.16095 -79.48390 13566 ft 343 kts 358°
2026-05-08 05:43 35.18465 -79.48079 13264 ft 342 kts 358°
2026-05-08 05:43 35.20828 -79.47765 12956 ft 341 kts 358°
2026-05-08 05:43 35.23183 -79.47452 12646 ft 340 kts 358°
2026-05-08 05:44 35.25531 -79.47137 12342 ft 339 kts 358°
2026-05-08 05:44 35.27871 -79.46821 12039 ft 338 kts 359°
2026-05-08 05:44 35.30193 -79.46504 11806 ft 331 kts 359°
2026-05-08 05:44 35.32435 -79.46192 11679 ft 318 kts 359°
2026-05-08 05:45 35.34594 -79.45890 11545 ft 307 kts 359°
2026-05-08 05:45 35.36689 -79.45600 11349 ft 299 kts 359°
2026-05-08 05:45 35.38748 -79.45303 11279 ft 300 kts
2026-05-08 05:45 35.40786 -79.44603 11093 ft 308 kts 13°
2026-05-08 05:46 35.42789 -79.43686 10826 ft 306 kts 13°
2026-05-08 05:46 35.44778 -79.42764 10569 ft 305 kts 13°
2026-05-08 05:46 35.46760 -79.41838 10308 ft 305 kts 15°
2026-05-08 05:46 35.48629 -79.40551 10056 ft 314 kts 31°
2026-05-08 05:47 35.50193 -79.38641 9672 ft 323 kts 49°
2026-05-08 05:47 35.51469 -79.36363 9271 ft 323 kts 52°
2026-05-08 05:47 35.52731 -79.34098 8935 ft 320 kts 51°
2026-05-08 05:47 35.53989 -79.31856 8570 ft 318 kts 51°
2026-05-08 05:48 35.55242 -79.29635 8293 ft 314 kts 51°
2026-05-08 05:48 35.56479 -79.27444 7978 ft 312 kts 51°
2026-05-08 05:48 35.57711 -79.25261 7628 ft 310 kts 51°
2026-05-08 05:48 35.58930 -79.23096 7316 ft 307 kts 51°
2026-05-08 05:49 35.60137 -79.20945 7014 ft 304 kts 52°
2026-05-08 05:49 35.61334 -79.18809 6605 ft 305 kts 52°
2026-05-08 05:49 35.62529 -79.16672 6347 ft 300 kts 52°
2026-05-08 05:49 35.63690 -79.14593 6188 ft 291 kts 52°
2026-05-08 05:50 35.64447 -79.13238 6115 ft 288 kts 52°
2026-05-08 05:50 35.65992 -79.10564 5806 ft 286 kts 50°
2026-05-08 05:50 35.66787 -79.09282 5601 ft 282 kts 49°
2026-05-08 05:50 35.67959 -79.07441 5314 ft 266 kts 49°
2026-05-08 05:51 35.69073 -79.05708 5052 ft 251 kts 49°
2026-05-08 05:51 35.70124 -79.04067 4776 ft 237 kts 49°
2026-05-08 05:51 35.71095 -79.02541 4676 ft 217 kts 49°
2026-05-08 05:51 35.72002 -79.01110 4574 ft 207 kts 49°
2026-05-08 05:52 35.72868 -78.99740 4463 ft 198 kts 49°
2026-05-08 05:52 35.73722 -78.98389 4067 ft 204 kts 48°
2026-05-08 05:52 35.74597 -78.97006 3744 ft 205 kts 47°
2026-05-08 05:52 35.75448 -78.95654 3528 ft 195 kts 47°
2026-05-08 05:53 35.76260 -78.94357 3310 ft 188 kts 46°
2026-05-08 05:53 35.77056 -78.93133 3151 ft 177 kts 42°
2026-05-08 05:53 35.77867 -78.92040 3024 ft 169 kts 40°
2026-05-08 05:53 35.78681 -78.91010 2832 ft 166 kts 38°
2026-05-08 05:54 35.79483 -78.90012 2618 ft 162 kts 38°
2026-05-08 05:54 35.80258 -78.89053 2404 ft 152 kts 38°
2026-05-08 05:54 35.80963 -78.88181 2232 ft 137 kts 37°
2026-05-08 05:54 35.81620 -78.87373 2041 ft 132 kts 37°
2026-05-08 05:55 35.82267 -78.86579 1865 ft 131 kts 38°
2026-05-08 05:55 35.82910 -78.85788 1685 ft 131 kts 38°
2026-05-08 05:55 35.83556 -78.84993 1495 ft 132 kts 39°
2026-05-08 05:55 35.84204 -78.84195 1315 ft 132 kts 40°
2026-05-08 05:56 35.84850 -78.83385 1101 ft 133 kts 42°
2026-05-08 05:56 35.85507 -78.82583 935 ft 133 kts 41°
2026-05-08 05:56 35.86175 -78.81785 767 ft 134 kts 45°
2026-05-08 05:56 35.86820 -78.80962 592 ft 134 kts 45°
2026-05-08 05:57 35.87477 -78.80152 437 ft 134 kts 44°
2026-05-08 05:57 35.88099 -78.79391 391 ft 109 kts 44°
2026-05-08 05:57 35.88513 -78.78877 391 ft 60 kts 45°
2026-05-08 05:57 35.88723 -78.78620 393 ft 32 kts 45°
2026-05-08 05:58 35.88771 -78.78492 394 ft 15 kts 111°
2026-05-08 05:58 35.88689 -78.78464 392 ft 17 kts 216°
2026-05-08 05:58 35.88601 -78.78579 392 ft 20 kts 225°
2026-05-08 05:58 35.88493 -78.78714 392 ft 24 kts 225°
2026-05-08 05:59 35.88395 -78.78836 391 ft 18 kts 225°
2026-05-08 05:59 35.88298 -78.78954 391 ft 21 kts 225°
2026-05-08 05:59 35.88210 -78.79064 391 ft 13 kts 225°
2026-05-08 05:59 35.88137 -78.79152 392 ft 16 kts 224°
2026-05-08 06:00 35.88047 -78.79263 392 ft 20 kts 225°
2026-05-08 06:00 35.87948 -78.79387 392 ft 16 kts 226°
2026-05-08 06:00 35.87859 -78.79497 392 ft 20 kts 225°
2026-05-08 06:00 35.87758 -78.79621 392 ft 15 kts 225°
2026-05-08 06:01 35.87688 -78.79669 392 ft 13 kts 191°
2026-05-08 06:01 35.87593 -78.79720 391 ft 17 kts 223°
2026-05-08 06:01 35.87510 -78.79784 392 ft 11 kts 166°
2026-05-08 06:01 35.87453 -78.79713 392 ft 12 kts 134°
2026-05-08 06:02 35.87405 -78.79638 392 ft 8 kts 92°
2026-05-08 06:02 35.87437 -78.79587 392 ft 8 kts 43°
2026-05-08 06:02 35.87481 -78.79557 392 ft 7 kts 351°
2026-05-08 06:02 35.87498 -78.79578 392 ft 2 kts 311°
2026-05-08 06:03 35.87504 -78.79585 392 ft 1 kts 314°
2026-05-08 06:03 35.87506 -78.79587 392 ft 0 kts 314°